Time,TemperatureF,DewpointF,PressureIn,WindDirection,WindDirectionDegrees,WindSpeedMPH,WindSpeedGustMPH,Humidity,HourlyPrecipIn,Conditions,Clouds,dailyrainin,SoftwareType,DateUTC
2013-11-07 00:00:00,33.6,30.7,29.78,WSW,244,0.0,0.0,89,0.00,,,0.00,Wunderground v.1.15,2013-11-07 06:00:00,
2013-11-07 00:06:00,33.5,30.6,29.79,WSW,244,0.0,0.0,89,0.00,,,0.00,Wunderground v.1.15,2013-11-07 06:06:00,
2013-11-07 00:12:00,33.4,30.5,29.79,WSW,244,0.0,0.0,89,0.00,,,0.00,Wunderground v.1.15,2013-11-07 06:12:00,
2013-11-07 00:17:00,33.3,30.7,29.79,WSW,244,0.0,0.0,90,0.00,,,0.00,Wunderground v.1.15,2013-11-07 06:17:00,
2013-11-07 00:22:00,33.3,30.7,29.79,WSW,244,0.0,0.0,90,0.00,,,0.00,Wunderground v.1.15,2013-11-07 06:22:00,
2013-11-07 00:28:00,33.1,30.5,29.80,WSW,244,0.0,0.0,90,0.00,,,0.00,Wunderground v.1.15,2013-11-07 06:28:00,
2013-11-07 00:33:00,33.3,30.7,29.79,WSW,244,0.0,0.0,90,0.00,,,0.00,Wunderground v.1.15,2013-11-07 06:33:00,
2013-11-07 00:38:00,33.0,30.4,29.80,WSW,244,0.0,0.0,90,0.00,,,0.00,Wunderground v.1.15,2013-11-07 06:38:00,
2013-11-07 00:44:00,33.0,30.4,29.80,WSW,244,0.0,0.0,90,0.00,,,0.00,Wunderground v.1.15,2013-11-07 06:44:00,
2013-11-07 00:49:00,33.1,30.5,29.80,WSW,241,0.0,0.0,90,0.00,,,0.00,Wunderground v.1.15,2013-11-07 06:49:00,
2013-11-07 00:55:00,33.2,30.6,29.80,WSW,241,0.0,0.0,90,0.00,,,0.00,Wunderground v.1.15,2013-11-07 06:55:00,
2013-11-07 01:00:00,33.2,30.9,29.80,WSW,242,0.0,0.0,91,0.00,,,0.00,Wunderground v.1.15,2013-11-07 07:00:00,
2013-11-07 01:06:00,33.3,30.7,29.80,WSW,242,0.0,0.0,90,0.00,,,0.00,Wunderground v.1.15,2013-11-07 07:06:00,
2013-11-07 01:11:00,33.4,30.8,29.80,WSW,244,0.0,0.0,90,0.00,,,0.00,Wunderground v.1.15,2013-11-07 07:11:00,
2013-11-07 01:16:00,33.4,30.8,29.80,WSW,244,0.0,0.0,90,0.00,,,0.00,Wunderground v.1.15,2013-11-07 07:16:00,
2013-11-07 01:22:00,33.2,30.6,29.80,WSW,244,0.0,0.0,90,0.00,,,0.00,Wunderground v.1.15,2013-11-07 07:22:00,
2013-11-07 01:27:00,33.0,30.1,29.80,WSW,244,0.0,0.0,89,0.00,,,0.00,Wunderground v.1.15,2013-11-07 07:27:00,
2013-11-07 01:33:00,32.8,29.9,29.80,WSW,244,0.0,0.0,89,0.00,,,0.00,Wunderground v.1.15,2013-11-07 07:33:00,
2013-11-07 01:38:00,32.5,29.9,29.80,WSW,244,0.0,0.0,90,0.00,,,0.00,Wunderground v.1.15,2013-11-07 07:38:00,
2013-11-07 01:43:00,32.4,29.8,29.80,WSW,244,0.0,0.0,90,0.00,,,0.00,Wunderground v.1.15,2013-11-07 07:43:00,
2013-11-07 01:49:00,32.2,29.6,29.80,WSW,244,0.0,0.0,90,0.00,,,0.00,Wunderground v.1.15,2013-11-07 07:49:00,
2013-11-07 01:54:00,32.1,29.5,29.80,WSW,244,0.0,0.0,90,0.00,,,0.00,Wunderground v.1.15,2013-11-07 07:54:00,
2013-11-07 02:00:00,32.0,29.4,29.80,WSW,244,0.0,0.0,90,0.00,,,0.00,Wunderground v.1.15,2013-11-07 08:00:00,
2013-11-07 02:05:00,31.9,29.3,29.80,WSW,244,0.0,0.0,90,0.00,,,0.00,Wunderground v.1.15,2013-11-07 08:05:00,
2013-11-07 02:10:00,31.9,29.3,29.80,WSW,244,0.0,0.0,90,0.00,,,0.00,Wunderground v.1.15,2013-11-07 08:10:00,
2013-11-07 02:16:00,31.8,29.5,29.80,WSW,244,0.0,0.0,91,0.00,,,0.00,Wunderground v.1.15,2013-11-07 08:16:00,
2013-11-07 02:21:00,31.8,29.5,29.80,WSW,244,0.0,0.0,91,0.00,,,0.00,Wunderground v.1.15,2013-11-07 08:21:00,
2013-11-07 02:27:00,31.7,29.4,29.81,WSW,244,0.0,0.0,91,0.00,,,0.00,Wunderground v.1.15,2013-11-07 08:27:00,
2013-11-07 02:33:00,31.6,29.3,29.81,WSW,244,0.0,0.0,91,0.00,,,0.00,Wunderground v.1.15,2013-11-07 08:33:00,
2013-11-07 02:38:00,31.6,29.3,29.81,WSW,244,0.0,0.0,91,0.00,,,0.00,Wunderground v.1.15,2013-11-07 08:38:00,
2013-11-07 02:44:00,31.7,29.4,29.81,WSW,244,0.0,0.0,91,0.00,,,0.00,Wunderground v.1.15,2013-11-07 08:44:00,
2013-11-07 02:49:00,31.8,29.7,29.81,WSW,244,0.0,0.0,92,0.00,,,0.00,Wunderground v.1.15,2013-11-07 08:49:00,
2013-11-07 02:55:00,32.0,29.9,29.81,WSW,244,0.0,0.0,92,0.00,,,0.00,Wunderground v.1.15,2013-11-07 08:55:00,
2013-11-07 03:00:00,32.0,29.7,29.81,WSW,244,0.0,0.0,91,0.00,,,0.00,Wunderground v.1.15,2013-11-07 09:00:00,
2013-11-07 03:06:00,31.9,29.6,29.81,WSW,244,0.0,0.0,91,0.00,,,0.00,Wunderground v.1.15,2013-11-07 09:06:00,
2013-11-07 03:11:00,31.9,29.6,29.81,WSW,244,0.0,0.0,91,0.00,,,0.00,Wunderground v.1.15,2013-11-07 09:11:00,
2013-11-07 03:16:00,32.0,29.9,29.81,WSW,244,0.0,0.0,92,0.00,,,0.00,Wunderground v.1.15,2013-11-07 09:16:00,
2013-11-07 03:22:00,32.1,29.8,29.81,WSW,244,0.0,0.0,91,0.00,,,0.00,Wunderground v.1.15,2013-11-07 09:22:00,
2013-11-07 03:27:00,32.0,29.7,29.81,WSW,244,0.0,0.0,91,0.00,,,0.00,Wunderground v.1.15,2013-11-07 09:27:00,
2013-11-07 03:33:00,31.9,29.6,29.80,WSW,244,0.0,0.0,91,0.00,,,0.00,Wunderground v.1.15,2013-11-07 09:33:00,
2013-11-07 03:38:00,31.9,29.6,29.80,WSW,244,0.0,0.0,91,0.00,,,0.00,Wunderground v.1.15,2013-11-07 09:38:00,
2013-11-07 03:43:00,31.8,29.5,29.80,WSW,244,0.0,0.0,91,0.00,,,0.00,Wunderground v.1.15,2013-11-07 09:43:00,
2013-11-07 03:49:00,31.8,29.5,29.80,WSW,244,0.0,0.0,91,0.00,,,0.00,Wunderground v.1.15,2013-11-07 09:49:00,
2013-11-07 03:54:00,31.7,29.4,29.80,WSW,244,0.0,0.0,91,0.00,,,0.00,Wunderground v.1.15,2013-11-07 09:54:00,
2013-11-07 04:00:00,31.7,29.4,29.80,WSW,244,0.0,0.0,91,0.00,,,0.00,Wunderground v.1.15,2013-11-07 10:00:00,
2013-11-07 04:05:00,31.6,29.3,29.80,WSW,244,0.0,0.0,91,0.00,,,0.00,Wunderground v.1.15,2013-11-07 10:05:00,
2013-11-07 04:10:00,31.5,29.2,29.80,WSW,244,0.0,0.0,91,0.00,,,0.00,Wunderground v.1.15,2013-11-07 10:10:00,
2013-11-07 04:16:00,31.4,29.1,29.80,WSW,244,0.0,0.0,91,0.00,,,0.00,Wunderground v.1.15,2013-11-07 10:16:00,
2013-11-07 04:21:00,31.5,29.4,29.80,WSW,244,0.0,0.0,92,0.00,,,0.00,Wunderground v.1.15,2013-11-07 10:21:00,
2013-11-07 04:27:00,31.4,29.3,29.80,WSW,244,0.0,0.0,92,0.00,,,0.00,Wunderground v.1.15,2013-11-07 10:27:00,
2013-11-07 04:32:00,31.4,29.3,29.80,WSW,244,0.0,0.0,92,0.00,,,0.00,Wunderground v.1.15,2013-11-07 10:32:00,
2013-11-07 04:37:00,31.5,29.4,29.81,WSW,244,0.0,0.0,92,0.00,,,0.00,Wunderground v.1.15,2013-11-07 10:37:00,
2013-11-07 04:43:00,31.5,29.4,29.80,WSW,244,0.0,0.0,92,0.00,,,0.00,Wunderground v.1.15,2013-11-07 10:43:00,
2013-11-07 04:49:00,31.5,29.2,29.81,WSW,244,0.0,0.0,91,0.00,,,0.00,Wunderground v.1.15,2013-11-07 10:49:00,
2013-11-07 04:55:00,31.5,29.4,29.81,WSW,244,0.0,0.0,92,0.00,,,0.00,Wunderground v.1.15,2013-11-07 10:55:00,
2013-11-07 05:01:00,31.6,29.3,29.80,WSW,244,0.0,0.0,91,0.00,,,0.00,Wunderground v.1.15,2013-11-07 11:01:00,
2013-11-07 05:07:00,31.5,29.2,29.81,WSW,244,0.0,0.0,91,0.00,,,0.00,Wunderground v.1.15,2013-11-07 11:07:00,
2013-11-07 05:12:00,31.4,29.1,29.81,WSW,244,0.0,0.0,91,0.00,,,0.00,Wunderground v.1.15,2013-11-07 11:12:00,
2013-11-07 05:17:00,31.4,29.1,29.81,WSW,244,0.0,0.0,91,0.00,,,0.00,Wunderground v.1.15,2013-11-07 11:17:00,
2013-11-07 05:23:00,31.4,29.1,29.81,WSW,244,0.0,0.0,91,0.00,,,0.00,Wunderground v.1.15,2013-11-07 11:23:00,
2013-11-07 05:28:00,31.3,29.0,29.81,WSW,244,0.0,0.0,91,0.00,,,0.00,Wunderground v.1.15,2013-11-07 11:28:00,
2013-11-07 05:34:00,31.2,28.9,29.81,WSW,244,0.0,0.0,91,0.00,,,0.00,Wunderground v.1.15,2013-11-07 11:34:00,
2013-11-07 05:39:00,31.1,28.8,29.81,WSW,244,0.0,0.0,91,0.00,,,0.00,Wunderground v.1.15,2013-11-07 11:39:00,
2013-11-07 05:40:00,31.1,28.8,29.81,WSW,244,0.0,0.0,91,0.00,,,0.00,Wunderground v.1.15,2013-11-07 11:40:00,
2013-11-07 05:46:00,31.0,28.7,29.81,WSW,244,0.0,0.0,91,0.00,,,0.00,Wunderground v.1.15,2013-11-07 11:46:00,
2013-11-07 05:51:00,31.0,28.7,29.81,WSW,244,0.0,0.0,91,0.00,,,0.00,Wunderground v.1.15,2013-11-07 11:51:00,
2013-11-07 05:57:00,31.2,28.9,29.81,WSW,243,0.0,0.0,91,0.00,,,0.00,Wunderground v.1.15,2013-11-07 11:57:00,
2013-11-07 06:02:00,31.4,29.3,29.82,SW,234,0.0,2.0,92,0.00,,,0.00,Wunderground v.1.15,2013-11-07 12:02:00,
2013-11-07 06:08:00,31.7,29.4,29.82,SW,227,1.0,2.0,91,0.00,,,0.00,Wunderground v.1.15,2013-11-07 12:08:00,
2013-11-07 06:13:00,31.9,29.6,29.83,SW,222,0.0,1.0,91,0.00,,,0.00,Wunderground v.1.15,2013-11-07 12:13:00,
2013-11-07 06:19:00,31.9,29.6,29.83,SW,216,0.0,3.0,91,0.00,,,0.00,Wunderground v.1.15,2013-11-07 12:19:00,
2013-11-07 06:24:00,31.9,29.6,29.83,SW,215,0.0,0.0,91,0.00,,,0.00,Wunderground v.1.15,2013-11-07 12:24:00,
2013-11-07 06:29:00,32.7,30.4,29.84,SSW,212,0.0,2.0,91,0.00,,,0.00,Wunderground v.1.15,2013-11-07 12:29:00,
2013-11-07 06:35:00,32.1,29.8,29.83,SSW,211,1.0,1.0,91,0.00,,,0.00,Wunderground v.1.15,2013-11-07 12:35:00,
2013-11-07 06:40:00,32.2,29.9,29.84,SSW,211,0.0,1.0,91,0.00,,,0.00,Wunderground v.1.15,2013-11-07 12:40:00,
2013-11-07 06:46:00,32.3,30.0,29.84,SSW,202,0.0,1.0,91,0.00,,,0.00,Wunderground v.1.15,2013-11-07 12:46:00,
2013-11-07 06:51:00,32.4,30.1,29.84,SSW,201,1.0,4.0,91,0.00,,,0.00,Wunderground v.1.15,2013-11-07 12:51:00,
2013-11-07 06:57:00,32.6,30.3,29.84,SSW,198,1.0,3.0,91,0.00,,,0.00,Wunderground v.1.15,2013-11-07 12:57:00,
2013-11-07 07:02:00,32.8,30.2,29.84,SSW,204,1.0,1.0,90,0.00,,,0.00,Wunderground v.1.15,2013-11-07 13:02:00,
2013-11-07 07:08:00,32.9,30.3,29.84,SSW,206,0.0,1.0,90,0.00,,,0.00,Wunderground v.1.15,2013-11-07 13:08:00,
2013-11-07 07:13:00,33.0,30.4,29.84,SSW,206,0.0,0.0,90,0.00,,,0.00,Wunderground v.1.15,2013-11-07 13:13:00,
2013-11-07 07:19:00,33.3,31.0,29.84,SSW,206,0.0,0.0,91,0.00,,,0.00,Wunderground v.1.15,2013-11-07 13:19:00,
2013-11-07 07:24:00,33.5,31.2,29.84,South,186,0.0,0.0,91,0.00,,,0.00,Wunderground v.1.15,2013-11-07 13:24:00,
2013-11-07 07:29:00,33.8,31.5,29.84,SSW,204,0.0,3.0,91,0.00,,,0.00,Wunderground v.1.15,2013-11-07 13:29:00,
2013-11-07 07:35:00,34.2,31.6,29.84,SSW,204,0.0,0.0,90,0.00,,,0.00,Wunderground v.1.15,2013-11-07 13:35:00,
2013-11-07 07:40:00,34.6,32.0,29.84,SSW,207,0.0,1.0,90,0.00,,,0.00,Wunderground v.1.15,2013-11-07 13:40:00,
2013-11-07 07:46:00,35.0,32.4,29.84,SSW,213,0.0,0.0,90,0.00,,,0.00,Wunderground v.1.15,2013-11-07 13:46:00,
2013-11-07 07:51:00,35.5,32.6,29.84,SSW,211,0.0,0.0,89,0.00,,,0.00,Wunderground v.1.15,2013-11-07 13:51:00,
2013-11-07 07:56:00,35.9,33.0,29.84,SW,219,0.0,0.0,89,0.00,,,0.00,Wunderground v.1.15,2013-11-07 13:56:00,
2013-11-07 08:02:00,36.3,33.1,29.84,SW,218,0.0,0.0,88,0.00,,,0.00,Wunderground v.1.15,2013-11-07 14:02:00,
2013-11-07 08:08:00,36.8,33.6,29.84,SW,215,0.0,0.0,88,0.00,,,0.00,Wunderground v.1.15,2013-11-07 14:08:00,
2013-11-07 08:14:00,37.3,33.8,29.84,SSW,206,1.0,5.0,87,0.00,,,0.00,Wunderground v.1.15,2013-11-07 14:14:00,
2013-11-07 08:19:00,37.5,33.7,29.84,SSW,198,1.0,5.0,86,0.00,,,0.00,Wunderground v.1.15,2013-11-07 14:19:00,
2013-11-07 08:24:00,37.9,33.8,29.84,SSW,198,1.0,1.0,85,0.78,,,0.05,Wunderground v.1.15,2013-11-07 14:24:00,
2013-11-07 08:29:00,38.0,34.2,29.84,SSW,199,1.0,3.0,86,0.23,,,0.09,Wunderground v.1.15,2013-11-07 14:29:00,
2013-11-07 08:35:00,38.3,34.8,29.84,SSW,205,0.0,1.0,87,0.19,,,0.10,Wunderground v.1.15,2013-11-07 14:35:00,
2013-11-07 08:40:00,38.8,35.3,29.84,SW,221,0.0,1.0,87,0.21,,,0.12,Wunderground v.1.15,2013-11-07 14:40:00,
2013-11-07 08:46:00,39.6,35.5,29.84,SW,230,1.0,2.0,85,0.19,,,0.14,Wunderground v.1.15,2013-11-07 14:46:00,
2013-11-07 08:52:00,40.2,35.8,29.84,SSW,211,1.0,1.0,84,0.23,,,0.16,Wunderground v.1.15,2013-11-07 14:52:00,
2013-11-07 08:57:00,40.9,36.1,29.84,SW,221,1.0,5.0,83,0.15,,,0.17,Wunderground v.1.15,2013-11-07 14:57:00,
2013-11-07 09:02:00,41.4,36.0,29.84,SW,236,2.0,2.0,81,0.15,,,0.18,Wunderground v.1.15,2013-11-07 15:02:00,
2013-11-07 09:08:00,41.6,35.9,29.83,SSW,203,3.0,8.0,80,0.20,,,0.20,Wunderground v.1.15,2013-11-07 15:08:00,
2013-11-07 09:13:00,41.7,36.0,29.83,SSW,198,4.0,4.0,80,0.18,,,0.22,Wunderground v.1.15,2013-11-07 15:13:00,
2013-11-07 09:19:00,42.7,-99.9,29.83,SSW,207,2.0,5.0,255,0.14,,,0.23,Wunderground v.1.15,2013-11-07 15:19:00,
2013-11-07 09:24:00,43.1,36.7,29.83,SW,215,2.0,4.0,78,0.18,,,0.24,Wunderground v.1.15,2013-11-07 15:24:00,
2013-11-07 09:30:00,42.9,36.5,29.83,SSW,207,3.0,6.0,78,0.18,,,0.26,Wunderground v.1.15,2013-11-07 15:30:00,
2013-11-07 09:35:00,43.1,36.4,29.83,SW,228,4.0,8.0,77,0.13,,,0.27,Wunderground v.1.15,2013-11-07 15:35:00,
2013-11-07 09:40:00,43.3,36.9,29.83,South,186,3.0,9.0,78,0.16,,,0.28,Wunderground v.1.15,2013-11-07 15:40:00,
2013-11-07 09:46:00,43.4,36.7,29.83,SW,228,4.0,10.0,77,0.16,,,0.30,Wunderground v.1.15,2013-11-07 15:46:00,
2013-11-07 09:51:00,43.8,37.1,29.83,SW,225,4.0,10.0,77,0.12,,,0.31,Wunderground v.1.15,2013-11-07 15:51:00,
2013-11-07 09:56:00,44.0,37.3,29.83,SW,231,3.0,9.0,77,0.15,,,0.32,Wunderground v.1.15,2013-11-07 15:56:00,
2013-11-07 10:02:00,44.2,37.1,29.82,SSW,211,3.0,3.0,76,0.11,,,0.33,Wunderground v.1.15,2013-11-07 16:02:00,
2013-11-07 10:08:00,44.3,36.9,29.82,SW,233,5.0,12.0,75,0.13,,,0.34,Wunderground v.1.15,2013-11-07 16:08:00,
2013-11-07 10:14:00,44.5,37.1,29.82,SW,225,6.0,6.0,75,0.15,,,0.36,Wunderground v.1.15,2013-11-07 16:14:00,
2013-11-07 10:19:00,44.8,37.7,29.82,WSW,244,4.0,9.0,76,0.11,,,0.36,Wunderground v.1.15,2013-11-07 16:19:00,
2013-11-07 10:24:00,45.1,38.0,29.82,SW,229,4.0,5.0,76,0.11,,,0.37,Wunderground v.1.15,2013-11-07 16:24:00,
2013-11-07 10:30:00,45.4,37.9,29.83,West,265,5.0,7.0,75,0.10,,,0.38,Wunderground v.1.15,2013-11-07 16:30:00,
2013-11-07 10:35:00,45.3,37.8,29.82,WSW,251,5.0,6.0,75,0.14,,,0.40,Wunderground v.1.15,2013-11-07 16:35:00,
2013-11-07 10:40:00,45.5,37.7,29.82,SW,221,5.0,9.0,74,0.12,,,0.40,Wunderground v.1.15,2013-11-07 16:40:00,
2013-11-07 10:46:00,45.9,38.1,29.82,WSW,240,5.0,9.0,74,0.14,,,0.42,Wunderground v.1.15,2013-11-07 16:46:00,
2013-11-07 10:51:00,46.4,37.9,29.82,SSW,197,4.0,9.0,72,0.10,,,0.42,Wunderground v.1.15,2013-11-07 16:51:00,
2013-11-07 10:57:00,46.9,39.0,29.82,WSW,239,3.0,6.0,74,0.13,,,0.44,Wunderground v.1.15,2013-11-07 16:57:00,
2013-11-07 11:02:00,46.8,38.2,29.82,WNW,284,3.0,3.0,72,0.10,,,0.45,Wunderground v.1.15,2013-11-07 17:02:00,
2013-11-07 11:08:00,47.2,38.3,29.82,WSW,238,2.0,6.0,71,0.13,,,0.46,Wunderground v.1.15,2013-11-07 17:08:00,
2013-11-07 11:13:00,47.2,38.6,29.82,SW,231,2.0,6.0,72,0.10,,,0.47,Wunderground v.1.15,2013-11-07 17:13:00,
2013-11-07 11:18:00,47.5,38.2,29.82,WSW,240,3.0,8.0,70,0.11,,,0.47,Wunderground v.1.15,2013-11-07 17:18:00,
2013-11-07 11:24:00,47.7,39.1,29.82,SW,219,2.0,3.0,72,0.11,,,0.48,Wunderground v.1.15,2013-11-07 17:24:00,
2013-11-07 11:29:00,48.1,39.1,29.82,SW,225,1.0,3.0,71,0.09,,,0.49,Wunderground v.1.15,2013-11-07 17:29:00,
2013-11-07 11:34:00,48.4,38.7,29.82,SW,225,1.0,1.0,69,0.11,,,0.50,Wunderground v.1.15,2013-11-07 17:34:00,
2013-11-07 11:40:00,48.5,38.4,29.82,South,184,2.0,8.0,68,0.09,,,0.51,Wunderground v.1.15,2013-11-07 17:40:00,
2013-11-07 11:45:00,48.6,38.5,29.81,SW,217,2.0,2.0,68,0.11,,,0.52,Wunderground v.1.15,2013-11-07 17:45:00,
2013-11-07 11:50:00,48.7,38.6,29.81,West,280,2.0,8.0,68,0.09,,,0.53,Wunderground v.1.15,2013-11-07 17:50:00,
2013-11-07 11:56:00,49.1,39.0,29.81,SSW,203,1.0,2.0,68,0.11,,,0.54,Wunderground v.1.15,2013-11-07 17:56:00,
2013-11-07 12:01:00,49.5,39.0,29.81,SW,215,1.0,5.0,67,0.08,,,0.54,Wunderground v.1.15,2013-11-07 18:01:00,
2013-11-07 12:04:00,49.7,38.4,29.80,WSW,238,1.0,1.0,65,0.08,,,0.55,Wunderground v.1.15,2013-11-07 18:04:00,
2013-11-07 12:09:00,49.8,37.3,29.81,SW,234,2.0,5.0,62,0.11,,,0.56,Wunderground v.1.15,2013-11-07 18:09:00,
2013-11-07 12:14:00,50.0,37.9,29.81,SW,235,2.0,2.0,63,0.08,,,0.56,Wunderground v.1.15,2013-11-07 18:14:00,
2013-11-07 12:20:00,50.2,38.1,29.80,WSW,240,2.0,5.0,63,0.10,,,0.57,Wunderground v.1.15,2013-11-07 18:20:00,
2013-11-07 12:26:00,50.4,37.4,29.80,South,183,2.0,2.0,61,0.10,,,0.58,Wunderground v.1.15,2013-11-07 18:26:00,
2013-11-07 12:31:00,50.7,36.9,29.80,West,263,1.0,2.0,59,0.06,,,0.59,Wunderground v.1.15,2013-11-07 18:31:00,
2013-11-07 12:37:00,51.0,36.3,29.80,West,265,1.0,4.0,57,0.09,,,0.60,Wunderground v.1.15,2013-11-07 18:37:00,
2013-11-07 12:42:00,51.0,36.7,29.80,West,266,1.0,1.0,58,0.09,,,0.60,Wunderground v.1.15,2013-11-07 18:42:00,
2013-11-07 12:48:00,51.4,36.7,29.80,West,271,1.0,4.0,57,0.07,,,0.61,Wunderground v.1.15,2013-11-07 18:48:00,
2013-11-07 12:53:00,51.4,36.2,29.80,WNW,296,1.0,1.0,56,0.09,,,0.62,Wunderground v.1.15,2013-11-07 18:53:00,
2013-11-07 12:58:00,51.4,36.7,29.80,SW,218,1.0,6.0,57,0.09,,,0.62,Wunderground v.1.15,2013-11-07 18:58:00,
2013-11-07 13:04:00,51.4,36.2,29.80,SSW,200,2.0,13.0,56,0.07,,,0.63,Wunderground v.1.15,2013-11-07 19:04:00,
2013-11-07 13:09:00,51.7,36.0,29.79,WNW,296,3.0,13.0,55,0.07,,,0.63,Wunderground v.1.15,2013-11-07 19:09:00,
2013-11-07 13:15:00,51.7,36.5,29.79,WNW,288,4.0,5.0,56,0.08,,,0.64,Wunderground v.1.15,2013-11-07 19:15:00,
2013-11-07 13:20:00,52.0,35.9,29.79,WSW,244,4.0,8.0,54,0.06,,,0.65,Wunderground v.1.15,2013-11-07 19:20:00,
2013-11-07 13:25:00,52.1,35.9,29.79,WSW,246,4.0,7.0,54,0.08,,,0.66,Wunderground v.1.15,2013-11-07 19:25:00,
2013-11-07 13:31:00,52.2,35.6,29.79,West,267,3.0,7.0,53,0.08,,,0.66,Wunderground v.1.15,2013-11-07 19:31:00,
2013-11-07 13:36:00,52.4,35.3,29.79,WSW,250,2.0,7.0,52,0.06,,,0.67,Wunderground v.1.15,2013-11-07 19:36:00,
2013-11-07 13:42:00,52.6,35.0,29.78,WSW,252,3.0,4.0,51,0.06,,,0.67,Wunderground v.1.15,2013-11-07 19:42:00,
2013-11-07 13:47:00,52.7,35.1,29.78,SW,232,2.0,4.0,51,0.08,,,0.68,Wunderground v.1.15,2013-11-07 19:47:00,
2013-11-07 13:52:00,52.7,35.1,29.78,West,270,2.0,7.0,51,0.06,,,0.68,Wunderground v.1.15,2013-11-07 19:52:00,
2013-11-07 13:58:00,52.7,34.1,29.78,WNW,288,4.0,7.0,49,0.06,,,0.69,Wunderground v.1.15,2013-11-07 19:58:00,
2013-11-07 14:03:00,52.8,34.7,29.78,WSW,242,4.0,5.0,50,0.07,,,0.70,Wunderground v.1.15,2013-11-07 20:03:00,
2013-11-07 14:08:00,53.2,35.0,29.78,WSW,253,4.0,14.0,50,0.07,,,0.70,Wunderground v.1.15,2013-11-07 20:08:00,
2013-11-07 14:14:00,53.1,34.4,29.78,WNW,297,5.0,6.0,49,0.05,,,0.71,Wunderground v.1.15,2013-11-07 20:14:00,
2013-11-07 14:19:00,53.0,34.3,29.78,SSW,210,5.0,12.0,49,0.05,,,0.71,Wunderground v.1.15,2013-11-07 20:19:00,
2013-11-07 14:24:00,53.2,34.5,29.78,West,273,4.0,7.0,49,0.06,,,0.72,Wunderground v.1.15,2013-11-07 20:24:00,
2013-11-07 14:30:00,53.3,33.6,29.78,West,263,3.0,7.0,47,0.06,,,0.72,Wunderground v.1.15,2013-11-07 20:30:00,
2013-11-07 14:35:00,53.4,34.2,29.78,WSW,254,2.0,8.0,48,0.05,,,0.73,Wunderground v.1.15,2013-11-07 20:35:00,
2013-11-07 14:40:00,53.4,34.2,29.78,WSW,247,2.0,8.0,48,0.05,,,0.73,Wunderground v.1.15,2013-11-07 20:40:00,
2013-11-07 14:46:00,53.5,34.3,29.78,WSW,242,2.0,8.0,48,0.06,,,0.74,Wunderground v.1.15,2013-11-07 20:46:00,
2013-11-07 14:51:00,53.3,34.1,29.78,SW,227,3.0,8.0,48,0.06,,,0.74,Wunderground v.1.15,2013-11-07 20:51:00,
2013-11-07 14:56:00,53.3,34.1,29.77,West,277,3.0,4.0,48,0.06,,,0.74,Wunderground v.1.15,2013-11-07 20:56:00,
2013-11-07 15:02:00,53.2,34.5,29.78,WSW,242,2.0,2.0,49,0.05,,,0.75,Wunderground v.1.15,2013-11-07 21:02:00,
2013-11-07 15:08:00,53.3,33.6,29.78,West,271,1.0,3.0,47,0.05,,,0.75,Wunderground v.1.15,2013-11-07 21:08:00,
2013-11-07 15:14:00,53.3,33.0,29.78,West,274,2.0,6.0,46,0.05,,,0.76,Wunderground v.1.15,2013-11-07 21:14:00,
2013-11-07 15:19:00,53.3,33.0,29.78,WNW,297,4.0,10.0,46,0.05,,,0.76,Wunderground v.1.15,2013-11-07 21:19:00,
2013-11-07 15:25:00,53.4,33.1,29.78,WSW,250,4.0,5.0,46,0.04,,,0.76,Wunderground v.1.15,2013-11-07 21:25:00,
2013-11-07 15:30:00,53.1,32.8,29.78,West,272,3.0,8.0,46,0.04,,,0.77,Wunderground v.1.15,2013-11-07 21:30:00,
2013-11-07 15:35:00,53.2,32.4,29.78,NW,309,4.0,6.0,45,0.04,,,0.77,Wunderground v.1.15,2013-11-07 21:35:00,
2013-11-07 15:41:00,53.0,32.8,29.78,WSW,251,3.0,7.0,46,0.05,,,0.78,Wunderground v.1.15,2013-11-07 21:41:00,
2013-11-07 15:46:00,52.8,33.1,29.78,WSW,237,3.0,3.0,47,0.05,,,0.78,Wunderground v.1.15,2013-11-07 21:46:00,
2013-11-07 15:52:00,52.7,31.9,29.78,West,269,2.0,2.0,45,0.04,,,0.78,Wunderground v.1.15,2013-11-07 21:52:00,
2013-11-07 15:57:00,52.5,32.8,29.78,West,275,1.0,6.0,47,0.04,,,0.79,Wunderground v.1.15,2013-11-07 21:57:00,
2013-11-07 16:02:00,52.1,32.5,29.78,WNW,285,3.0,3.0,47,0.04,,,0.79,Wunderground v.1.15,2013-11-07 22:02:00,
2013-11-07 16:08:00,51.6,32.0,29.79,West,267,3.0,7.0,47,0.04,,,0.80,Wunderground v.1.15,2013-11-07 22:08:00,
2013-11-07 16:13:00,51.4,32.3,29.78,NW,323,3.0,3.0,48,0.04,,,0.80,Wunderground v.1.15,2013-11-07 22:13:00,
2013-11-07 16:19:00,51.0,32.0,29.78,WSW,241,1.0,3.0,48,0.04,,,0.80,Wunderground v.1.15,2013-11-07 22:19:00,
2013-11-07 16:25:00,50.7,32.2,29.79,NW,304,1.0,1.0,49,0.00,,,0.81,Wunderground v.1.15,2013-11-07 22:25:00,
2013-11-07 16:30:00,50.4,31.9,29.79,West,274,1.0,2.0,49,0.00,,,0.81,Wunderground v.1.15,2013-11-07 22:30:00,
2013-11-07 16:36:00,50.1,32.2,29.79,West,279,1.0,6.0,50,0.00,,,0.81,Wunderground v.1.15,2013-11-07 22:36:00,
2013-11-07 16:41:00,49.8,31.9,29.79,West,280,1.0,6.0,50,0.04,,,0.82,Wunderground v.1.15,2013-11-07 22:41:00,
2013-11-07 16:46:00,49.6,32.7,29.79,WSW,255,0.0,3.0,52,0.04,,,0.82,Wunderground v.1.15,2013-11-07 22:46:00,
2013-11-07 16:51:00,49.2,31.8,29.79,West,271,0.0,3.0,51,0.04,,,0.82,Wunderground v.1.15,2013-11-07 22:51:00,
2013-11-07 16:57:00,48.9,32.5,29.79,West,273,0.0,0.0,53,0.04,,,0.82,Wunderground v.1.15,2013-11-07 22:57:00,
2013-11-07 17:02:00,48.5,31.7,29.79,West,270,0.0,0.0,52,0.00,,,0.83,Wunderground v.1.15,2013-11-07 23:02:00,
2013-11-07 17:08:00,48.1,32.7,29.80,West,270,0.0,0.0,55,0.00,,,0.83,Wunderground v.1.15,2013-11-07 23:08:00,
2013-11-07 17:13:00,47.8,32.9,29.80,West,270,0.0,0.0,56,0.00,,,0.83,Wunderground v.1.15,2013-11-07 23:13:00,
2013-11-07 17:18:00,47.3,32.8,29.80,West,270,0.0,0.0,57,0.00,,,0.83,Wunderground v.1.15,2013-11-07 23:18:00,
2013-11-07 17:24:00,46.7,32.7,29.80,West,271,0.0,0.0,58,0.00,,,0.84,Wunderground v.1.15,2013-11-07 23:24:00,
2013-11-07 17:30:00,46.2,32.7,29.80,West,271,0.0,0.0,59,0.00,,,0.84,Wunderground v.1.15,2013-11-07 23:30:00,
2013-11-07 17:35:00,45.8,32.7,29.80,West,271,0.0,0.0,60,0.00,,,0.84,Wunderground v.1.15,2013-11-07 23:35:00,
2013-11-07 17:41:00,45.2,32.5,29.81,West,271,0.0,0.0,61,0.00,,,0.84,Wunderground v.1.15,2013-11-07 23:41:00,
2013-11-07 17:47:00,44.8,33.0,29.81,West,271,0.0,0.0,63,0.00,,,0.85,Wunderground v.1.15,2013-11-07 23:47:00,
2013-11-07 17:52:00,44.4,32.2,29.81,West,271,0.0,0.0,62,0.00,,,0.85,Wunderground v.1.15,2013-11-07 23:52:00,
2013-11-07 17:58:00,44.1,31.9,29.81,West,271,0.0,0.0,62,0.00,,,0.85,Wunderground v.1.15,2013-11-07 23:58:00,
2013-11-07 18:04:00,44.0,31.8,29.81,West,271,0.0,0.0,62,0.00,,,0.85,Wunderground v.1.15,2013-11-08 00:04:00,
2013-11-07 18:09:00,43.7,31.9,29.81,West,271,0.0,0.0,63,0.00,,,0.86,Wunderground v.1.15,2013-11-08 00:09:00,
2013-11-07 18:15:00,43.4,31.6,29.81,West,271,0.0,0.0,63,0.00,,,0.86,Wunderground v.1.15,2013-11-08 00:15:00,
2013-11-07 18:21:00,43.1,31.7,29.82,West,271,0.0,0.0,64,0.00,,,0.86,Wunderground v.1.15,2013-11-08 00:21:00,
2013-11-07 18:26:00,42.7,32.1,29.82,West,271,0.0,0.0,66,0.00,,,0.86,Wunderground v.1.15,2013-11-08 00:26:00,
2013-11-07 18:32:00,42.4,32.6,29.82,West,271,0.0,0.0,68,0.00,,,0.86,Wunderground v.1.15,2013-11-08 00:32:00,
2013-11-07 18:37:00,42.1,-99.9,29.82,West,271,0.0,0.0,255,0.00,,,0.86,Wunderground v.1.15,2013-11-08 00:37:00,
2013-11-07 18:43:00,41.8,31.6,29.82,West,271,0.0,0.0,67,0.00,,,0.87,Wunderground v.1.15,2013-11-08 00:43:00,
2013-11-07 18:48:00,41.7,31.5,29.82,West,271,0.0,0.0,67,0.00,,,0.87,Wunderground v.1.15,2013-11-08 00:48:00,
2013-11-07 18:54:00,41.5,31.4,29.82,West,271,0.0,0.0,67,0.00,,,0.87,Wunderground v.1.15,2013-11-08 00:54:00,
2013-11-07 19:00:00,41.4,31.3,29.82,West,271,0.0,0.0,67,0.00,,,0.87,Wunderground v.1.15,2013-11-08 01:00:00,
2013-11-07 19:05:00,41.3,31.9,29.82,West,271,0.0,0.0,69,0.00,,,0.88,Wunderground v.1.15,2013-11-08 01:05:00,
2013-11-07 19:11:00,41.2,32.5,29.82,West,266,0.0,0.0,71,0.00,,,0.88,Wunderground v.1.15,2013-11-08 01:11:00,
2013-11-07 19:16:00,40.9,32.2,29.82,West,265,0.0,0.0,71,0.00,,,0.88,Wunderground v.1.15,2013-11-08 01:16:00,
2013-11-07 19:22:00,40.7,31.7,29.82,West,265,0.0,0.0,70,0.00,,,0.88,Wunderground v.1.15,2013-11-08 01:22:00,
2013-11-07 19:28:00,40.8,31.4,29.82,West,265,0.0,0.0,69,0.00,,,0.88,Wunderground v.1.15,2013-11-08 01:28:00,
2013-11-07 19:33:00,40.4,31.4,29.83,West,264,0.0,0.0,70,0.00,,,0.88,Wunderground v.1.15,2013-11-08 01:33:00,
2013-11-07 19:39:00,40.3,31.6,29.83,West,275,0.0,1.0,71,0.00,,,0.89,Wunderground v.1.15,2013-11-08 01:39:00,
2013-11-07 19:44:00,40.3,31.6,29.83,WSW,257,0.0,0.0,71,0.00,,,0.89,Wunderground v.1.15,2013-11-08 01:44:00,
2013-11-07 19:50:00,40.8,31.8,29.83,West,273,0.0,0.0,70,0.00,,,0.89,Wunderground v.1.15,2013-11-08 01:50:00,
2013-11-07 19:55:00,40.5,31.5,29.83,West,275,0.0,0.0,70,0.00,,,0.89,Wunderground v.1.15,2013-11-08 01:55:00,
2013-11-07 20:01:00,40.7,31.7,29.83,West,275,0.0,0.0,70,0.00,,,0.89,Wunderground v.1.15,2013-11-08 02:01:00,
2013-11-07 20:07:00,40.2,30.8,29.83,West,276,0.0,0.0,69,0.00,,,0.90,Wunderground v.1.15,2013-11-08 02:07:00,
2013-11-07 20:12:00,40.1,30.4,29.83,West,260,0.0,1.0,68,0.00,,,0.90,Wunderground v.1.15,2013-11-08 02:12:00,
2013-11-07 20:18:00,40.0,30.6,29.83,West,278,0.0,2.0,69,0.00,,,0.90,Wunderground v.1.15,2013-11-08 02:18:00,
2013-11-07 20:24:00,40.0,30.6,29.83,West,277,0.0,0.0,69,0.00,,,0.90,Wunderground v.1.15,2013-11-08 02:24:00,
2013-11-07 20:29:00,39.9,30.9,29.83,West,276,0.0,1.0,70,0.00,,,0.90,Wunderground v.1.15,2013-11-08 02:29:00,
2013-11-07 20:35:00,39.8,-99.9,29.83,West,276,0.0,0.0,255,0.00,,,0.90,Wunderground v.1.15,2013-11-08 02:35:00,
2013-11-07 20:40:00,39.6,31.7,29.83,West,269,0.0,1.0,73,0.00,,,0.90,Wunderground v.1.15,2013-11-08 02:40:00,
2013-11-07 20:46:00,39.5,31.2,29.83,West,273,0.0,0.0,72,0.00,,,0.91,Wunderground v.1.15,2013-11-08 02:46:00,
2013-11-07 20:52:00,39.2,30.2,29.83,West,273,0.0,0.0,70,0.00,,,0.91,Wunderground v.1.15,2013-11-08 02:52:00,
2013-11-07 20:57:00,39.1,29.8,29.83,West,272,0.0,0.0,69,0.00,,,0.91,Wunderground v.1.15,2013-11-08 02:57:00,
2013-11-07 21:02:00,39.2,30.2,29.83,West,273,0.0,0.0,70,0.00,,,0.91,Wunderground v.1.15,2013-11-08 03:02:00,
2013-11-07 21:08:00,39.2,30.6,29.83,West,272,0.0,0.0,71,0.00,,,0.91,Wunderground v.1.15,2013-11-08 03:08:00,
2013-11-07 21:14:00,39.1,30.1,29.83,West,273,0.0,0.0,70,0.00,,,0.91,Wunderground v.1.15,2013-11-08 03:14:00,
2013-11-07 21:20:00,38.9,30.6,29.83,West,272,0.0,0.0,72,0.00,,,0.92,Wunderground v.1.15,2013-11-08 03:20:00,
2013-11-07 21:25:00,38.7,30.4,29.84,West,272,0.0,0.0,72,0.00,,,0.92,Wunderground v.1.15,2013-11-08 03:25:00,
2013-11-07 21:31:00,38.6,-99.9,29.83,West,269,0.0,0.0,255,0.00,,,0.92,Wunderground v.1.15,2013-11-08 03:31:00,
2013-11-07 21:36:00,38.4,29.8,29.84,West,271,0.0,0.0,71,0.00,,,0.92,Wunderground v.1.15,2013-11-08 03:36:00,
2013-11-07 21:42:00,38.2,29.6,29.84,West,271,0.0,0.0,71,0.00,,,0.92,Wunderground v.1.15,2013-11-08 03:42:00,
2013-11-07 21:47:00,38.0,30.1,29.83,West,271,0.0,0.0,73,0.00,,,0.92,Wunderground v.1.15,2013-11-08 03:47:00,
2013-11-07 21:53:00,37.7,29.8,29.84,West,270,0.0,0.0,73,0.00,,,0.92,Wunderground v.1.15,2013-11-08 03:53:00,
2013-11-07 21:59:00,37.5,29.3,29.83,West,269,0.0,0.0,72,0.00,,,0.92,Wunderground v.1.15,2013-11-08 03:59:00,
2013-11-07 22:04:00,37.4,29.9,29.84,West,269,0.0,0.0,74,0.00,,,0.92,Wunderground v.1.15,2013-11-08 04:04:00,
2013-11-07 22:10:00,37.2,30.0,29.84,West,269,0.0,0.0,75,0.00,,,0.93,Wunderground v.1.15,2013-11-08 04:10:00,
2013-11-07 22:15:00,36.9,29.7,29.83,West,269,0.0,0.0,75,0.00,,,0.93,Wunderground v.1.15,2013-11-08 04:15:00,
2013-11-07 22:21:00,36.7,29.8,29.84,West,269,0.0,0.0,76,0.00,,,0.93,Wunderground v.1.15,2013-11-08 04:21:00,
2013-11-07 22:27:00,36.6,29.4,29.83,West,269,0.0,0.0,75,0.00,,,0.93,Wunderground v.1.15,2013-11-08 04:27:00,
2013-11-07 22:32:00,36.9,30.0,29.83,West,269,0.0,0.0,76,0.00,,,0.93,Wunderground v.1.15,2013-11-08 04:32:00,
2013-11-07 22:38:00,36.3,29.8,29.83,West,270,0.0,0.0,77,0.00,,,0.93,Wunderground v.1.15,2013-11-08 04:38:00,
2013-11-07 22:44:00,36.2,29.7,29.84,West,269,0.0,0.0,77,0.00,,,0.93,Wunderground v.1.15,2013-11-08 04:44:00,
2013-11-07 22:49:00,36.1,29.6,29.84,West,269,0.0,0.0,77,0.00,,,0.94,Wunderground v.1.15,2013-11-08 04:49:00,
2013-11-07 22:54:00,35.9,29.7,29.83,West,269,0.0,0.0,78,0.00,,,0.94,Wunderground v.1.15,2013-11-08 04:54:00,
2013-11-07 22:59:00,35.7,29.5,29.84,West,270,0.0,0.0,78,0.00,,,0.94,Wunderground v.1.15,2013-11-08 04:59:00,
2013-11-07 23:02:00,35.6,29.4,29.84,West,269,0.0,0.0,78,0.00,,,0.94,Wunderground v.1.15,2013-11-08 05:02:00,
2013-11-07 23:03:00,35.6,29.4,29.84,West,269,0.0,0.0,78,0.00,,,0.94,Wunderground v.1.15,2013-11-08 05:03:00,
2013-11-07 23:04:00,35.6,29.4,29.84,West,269,0.0,0.0,78,0.00,,,0.94,Wunderground v.1.15,2013-11-08 05:04:00,
2013-11-07 23:05:00,35.6,29.4,29.84,West,269,0.0,0.0,78,0.00,,,0.94,Wunderground v.1.15,2013-11-08 05:05:00,
2013-11-07 23:06:00,35.6,29.4,29.83,West,269,0.0,0.0,78,0.00,,,0.94,Wunderground v.1.15,2013-11-08 05:06:00,
2013-11-07 23:07:00,35.5,29.3,29.83,West,269,0.0,0.0,78,0.00,,,0.94,Wunderground v.1.15,2013-11-08 05:07:00,
2013-11-07 23:13:00,35.4,29.2,29.83,West,270,0.0,0.0,78,0.00,,,0.94,Wunderground v.1.15,2013-11-08 05:13:00,
2013-11-07 23:18:00,35.3,29.1,29.83,West,271,0.0,0.0,78,0.00,,,0.94,Wunderground v.1.15,2013-11-08 05:18:00,
2013-11-07 23:24:00,35.4,29.5,29.83,West,271,0.0,0.0,79,0.00,,,0.94,Wunderground v.1.15,2013-11-08 05:24:00,
2013-11-07 23:29:00,35.4,29.5,29.83,West,271,0.0,0.0,79,0.00,,,0.94,Wunderground v.1.15,2013-11-08 05:29:00,
2013-11-07 23:35:00,35.5,29.6,29.83,West,271,0.0,0.0,79,0.00,,,0.94,Wunderground v.1.15,2013-11-08 05:35:00,
2013-11-07 23:40:00,35.5,29.3,29.83,West,271,0.0,0.0,78,0.00,,,0.94,Wunderground v.1.15,2013-11-08 05:40:00,
2013-11-07 23:46:00,35.5,29.6,29.83,West,271,0.0,0.0,79,0.00,,,0.95,Wunderground v.1.15,2013-11-08 05:46:00,
2013-11-07 23:51:00,35.5,29.6,29.83,West,271,0.0,0.0,79,0.00,,,0.95,Wunderground v.1.15,2013-11-08 05:51:00,
2013-11-07 23:57:00,35.4,29.2,29.84,West,271,0.0,0.0,78,0.00,,,0.95,Wunderground v.1.15,2013-11-08 05:57:00,